Weather in Sorgun

Turkey     39°48′54″N   35°11′27″E
temp.,
°C
wind,
m/s
gust,
m/s
humid.,
%
clouds,
%
prec.,
mm/h
press.,
hPa
HPBL,
m
18 may, tue
tue1800:00+11ssw225542 0.0 101211
03:00+13ssw225219 0.0 101219
06:00+10s22635 0.0 101311
09:00+17ssw35435 0.0 1013592
12:00+22sw58378 0.0 10112204
15:00+24sw69319 0.0 10092821
18:00+23wsw59355 0.0 10081290
21:00+18s2244100 0.0 100822
19 may, wed
wed1900:00+17w614462 0.0 1010385
03:00+14w612575 0.0 1013474
06:00+10ssw22780 0.0 101632
09:00+16w453983 0.0 10171025
12:00+20wsw56310 0.0 10161646
15:00+22w45250 0.0 10141926
18:00+21wnw332549 0.0 10141679
21:00+14n113677 0.0 101411
20 may, thu
thu2000:00+13e33470 0.0 101515
03:00+11e22480 0.0 101411
06:00+12ene22490 0.0 101310
09:00+21se23310 0.0 1012355
12:00+27ssw47250 0.0 10091948
15:00+29ssw68170 0.0 10073113
18:00+28wsw35250 0.0 1006180
21:00+19ene22360 0.0 100811
21 may, fri
fri2100:00+16s22420 0.0 100911
03:00+14s22500 0.0 101011
06:00+14s22470 0.0 101011
09:00+23ssw35290 0.0 1010411
12:00+28ssw69205 0.0 10082247
15:00+30sw511137 0.0 10063435
18:00+29sw362312 0.0 1004193
21:00+19se33345 0.0 100731
22 may, sat
sat2200:00+17sw22370 0.0 100712
03:00+14ssw11408 0.0 100711
06:00+16ne223925 0.0 100611
09:00+24s36307 0.0 1006674
12:00+28s47205 0.0 10042298
15:00+29ssw59165 0.0 10034096
18:00+25sw693267 0.0 1003847
21:00+15nw226396 0.1 100816